Time,TemperatureF,DewpointF,PressureIn,WindDirection,WindDirectionDegrees,WindSpeedMPH,WindSpeedGustMPH,Humidity,HourlyPrecipIn,Conditions,Clouds,dailyrainin,SoftwareType,DateUTC
2013-01-15 00:00:00,15.1,13.4,30.42,SSW,203,0.0,1.0,93,0.00,,---,0.00,VWS V14.01,2013-01-15 05:00:00,
2013-01-15 00:01:00,15.1,13.4,30.42,SSW,201,0.0,1.0,93,0.00,,---,0.00,VWS V14.01,2013-01-15 05:01:00,
2013-01-15 00:06:00,15.3,13.6,30.42,SSW,201,0.0,0.0,93,0.00,,---,0.00,VWS V14.01,2013-01-15 05:06:00,
2013-01-15 00:11:00,15.3,13.6,30.42,SSW,203,0.0,0.0,93,0.00,,---,0.00,VWS V14.01,2013-01-15 05:11:00,
2013-01-15 00:16:00,15.1,13.4,30.42,SSW,203,0.0,0.0,93,0.00,,---,0.00,VWS V14.01,2013-01-15 05:16:00,
2013-01-15 00:21:00,14.7,12.8,30.42,SSW,203,0.0,0.0,92,0.00,,---,0.00,VWS V14.01,2013-01-15 05:21:00,
2013-01-15 00:26:00,14.4,12.5,30.42,SSW,203,0.0,0.0,92,0.00,,---,0.00,VWS V14.01,2013-01-15 05:26:00,
2013-01-15 00:31:00,14.3,12.6,30.42,SSW,201,0.0,0.0,93,0.00,,---,0.00,VWS V14.01,2013-01-15 05:31:00,
2013-01-15 00:36:00,14.1,12.4,30.42,SSW,201,0.0,0.0,93,0.00,,---,0.00,VWS V14.01,2013-01-15 05:36:00,
2013-01-15 00:41:00,13.8,12.1,30.42,SSW,201,0.0,0.0,93,0.00,,---,0.00,VWS V14.01,2013-01-15 05:41:00,
2013-01-15 00:47:00,14.2,12.8,30.42,ESE,120,0.0,1.0,94,0.00,,---,0.00,VWS V14.01,2013-01-15 05:47:00,
2013-01-15 00:52:00,14.5,13.1,30.42,ESE,120,0.0,1.0,94,0.00,,---,0.00,VWS V14.01,2013-01-15 05:52:00,
2013-01-15 00:57:00,14.3,12.6,30.43,ESE,120,0.0,1.0,93,0.00,,---,0.00,VWS V14.01,2013-01-15 05:57:00,
2013-01-15 01:02:00,13.9,12.2,30.43,ESE,120,0.0,0.0,93,0.00,,---,0.00,VWS V14.01,2013-01-15 06:02:00,
2013-01-15 01:07:00,13.7,12.1,30.43,ESE,120,0.0,0.0,93,0.00,,---,0.00,VWS V14.01,2013-01-15 06:07:00,
2013-01-15 01:12:00,13.6,12.0,30.42,ESE,120,0.0,0.0,93,0.00,,---,0.00,VWS V14.01,2013-01-15 06:12:00,
2013-01-15 01:17:00,13.7,12.1,30.42,ESE,120,0.0,0.0,93,0.00,,---,0.00,VWS V14.01,2013-01-15 06:17:00,
2013-01-15 01:22:00,13.6,12.0,30.42,ESE,120,0.0,0.0,93,0.00,,---,0.00,VWS V14.01,2013-01-15 06:22:00,
2013-01-15 01:28:00,13.6,12.0,30.43,ESE,120,0.0,0.0,93,0.00,,---,0.00,VWS V14.01,2013-01-15 06:28:00,
2013-01-15 01:33:00,13.5,11.9,30.43,ESE,120,0.0,0.0,93,0.00,,---,0.00,VWS V14.01,2013-01-15 06:33:00,
2013-01-15 01:38:00,13.2,11.6,30.43,ESE,120,0.0,0.0,93,0.00,,---,0.00,VWS V14.01,2013-01-15 06:38:00,
2013-01-15 01:43:00,13.1,11.5,30.43,ESE,120,0.0,0.0,93,0.00,,---,0.00,VWS V14.01,2013-01-15 06:43:00,
2013-01-15 01:48:00,12.9,11.3,30.43,ESE,120,0.0,0.0,93,0.00,,---,0.00,VWS V14.01,2013-01-15 06:48:00,
2013-01-15 01:53:00,12.9,11.3,30.43,ESE,120,0.0,0.0,93,0.00,,---,0.00,VWS V14.01,2013-01-15 06:53:00,
2013-01-15 01:58:00,13.0,11.4,30.43,ESE,120,0.0,0.0,93,0.00,,---,0.00,VWS V14.01,2013-01-15 06:58:00,
2013-01-15 02:03:00,13.1,11.5,30.43,ESE,120,0.0,0.0,93,0.00,,---,0.00,VWS V14.01,2013-01-15 07:03:00,
2013-01-15 02:08:00,13.0,11.4,30.44,ESE,120,0.0,0.0,93,0.00,,---,0.00,VWS V14.01,2013-01-15 07:08:00,
2013-01-15 02:13:00,12.7,11.1,30.44,ESE,120,0.0,0.0,93,0.00,,---,0.00,VWS V14.01,2013-01-15 07:13:00,
2013-01-15 02:18:00,12.6,11.0,30.44,ESE,120,0.0,0.0,93,0.00,,---,0.00,VWS V14.01,2013-01-15 07:18:00,
2013-01-15 02:23:00,12.8,11.4,30.44,ESE,120,0.0,0.0,94,0.00,,---,0.00,VWS V14.01,2013-01-15 07:23:00,
2013-01-15 02:29:00,13.3,11.9,30.44,ESE,120,0.0,0.0,94,0.00,,---,0.00,VWS V14.01,2013-01-15 07:29:00,
2013-01-15 02:34:00,13.3,11.7,30.44,ESE,120,0.0,0.0,93,0.00,,---,0.00,VWS V14.01,2013-01-15 07:34:00,
2013-01-15 02:39:00,13.3,11.7,30.44,ESE,120,0.0,0.0,93,0.00,,---,0.00,VWS V14.01,2013-01-15 07:39:00,
2013-01-15 02:44:00,13.3,11.7,30.44,ESE,120,0.0,0.0,93,0.00,,---,0.00,VWS V14.01,2013-01-15 07:44:00,
2013-01-15 02:49:00,13.3,11.7,30.44,ESE,120,0.0,0.0,93,0.00,,---,0.00,VWS V14.01,2013-01-15 07:49:00,
2013-01-15 02:54:00,13.4,11.8,30.44,ESE,120,0.0,0.0,93,0.00,,---,0.00,VWS V14.01,2013-01-15 07:54:00,
2013-01-15 02:59:00,13.5,11.9,30.44,ESE,120,0.0,0.0,93,0.00,,---,0.00,VWS V14.01,2013-01-15 07:59:00,
2013-01-15 03:04:00,13.6,12.0,30.45,ESE,120,0.0,0.0,93,0.00,,---,0.00,VWS V14.01,2013-01-15 08:04:00,
2013-01-15 03:09:00,13.7,12.1,30.44,ESE,120,0.0,0.0,93,0.00,,---,0.00,VWS V14.01,2013-01-15 08:09:00,
2013-01-15 03:14:00,13.4,11.8,30.44,ESE,120,0.0,0.0,93,0.00,,---,0.00,VWS V14.01,2013-01-15 08:14:00,
2013-01-15 03:20:00,13.2,11.6,30.45,ESE,120,0.0,0.0,93,0.00,,---,0.00,VWS V14.01,2013-01-15 08:20:00,
2013-01-15 03:25:00,13.2,11.6,30.44,ESE,120,0.0,0.0,93,0.00,,---,0.00,VWS V14.01,2013-01-15 08:25:00,
2013-01-15 03:30:00,13.2,11.6,30.44,ESE,120,0.0,0.0,93,0.00,,---,0.00,VWS V14.01,2013-01-15 08:30:00,
2013-01-15 03:35:00,13.3,11.7,30.44,ESE,120,0.0,0.0,93,0.00,,---,0.00,VWS V14.01,2013-01-15 08:35:00,
2013-01-15 03:40:00,13.2,11.6,30.44,ESE,120,0.0,0.0,93,0.00,,---,0.00,VWS V14.01,2013-01-15 08:40:00,
2013-01-15 03:45:00,13.0,11.4,30.44,ESE,120,0.0,0.0,93,0.00,,---,0.00,VWS V14.01,2013-01-15 08:45:00,
2013-01-15 03:50:00,12.9,11.3,30.44,ESE,123,0.0,0.0,93,0.00,,---,0.00,VWS V14.01,2013-01-15 08:50:00,
2013-01-15 03:55:00,12.8,11.2,30.44,ESE,122,0.0,0.0,93,0.00,,---,0.00,VWS V14.01,2013-01-15 08:55:00,
2013-01-15 04:00:00,12.7,11.1,30.44,ESE,122,0.0,0.0,93,0.00,,---,0.00,VWS V14.01,2013-01-15 09:00:00,
2013-01-15 04:05:00,12.5,10.9,30.44,ESE,122,0.0,0.0,93,0.00,,---,0.00,VWS V14.01,2013-01-15 09:05:00,
2013-01-15 04:10:00,12.4,10.8,30.44,ESE,123,0.0,0.0,93,0.00,,---,0.00,VWS V14.01,2013-01-15 09:10:00,
2013-01-15 04:15:00,12.1,10.5,30.44,ESE,122,0.0,0.0,93,0.00,,---,0.00,VWS V14.01,2013-01-15 09:15:00,
2013-01-15 04:20:00,11.8,10.2,30.44,ESE,123,0.0,0.0,93,0.00,,---,0.00,VWS V14.01,2013-01-15 09:20:00,
2013-01-15 04:25:00,11.8,10.2,30.44,ESE,123,0.0,0.0,93,0.00,,---,0.00,VWS V14.01,2013-01-15 09:25:00,
2013-01-15 04:30:00,11.6,10.0,30.44,ESE,123,0.0,0.0,93,0.00,,---,0.00,VWS V14.01,2013-01-15 09:30:00,
2013-01-15 04:35:00,10.9,9.3,30.44,ESE,123,0.0,0.0,93,0.00,,---,0.00,VWS V14.01,2013-01-15 09:35:00,
2013-01-15 04:40:00,10.9,9.3,30.44,ESE,123,0.0,0.0,93,0.00,,---,0.00,VWS V14.01,2013-01-15 09:40:00,
2013-01-15 04:45:00,10.9,9.3,30.44,ESE,123,0.0,0.0,93,0.00,,---,0.00,VWS V14.01,2013-01-15 09:45:00,
2013-01-15 04:50:00,10.9,9.3,30.44,ESE,123,0.0,0.0,93,0.00,,---,0.00,VWS V14.01,2013-01-15 09:50:00,
2013-01-15 04:56:00,10.9,9.3,30.44,ESE,123,0.0,0.0,93,0.00,,---,0.00,VWS V14.01,2013-01-15 09:56:00,
2013-01-15 05:01:00,10.9,9.3,30.44,ESE,123,0.0,0.0,93,0.00,,---,0.00,VWS V14.01,2013-01-15 10:01:00,
2013-01-15 05:06:00,10.9,9.3,30.44,ESE,123,0.0,0.0,93,0.00,,---,0.00,VWS V14.01,2013-01-15 10:06:00,
2013-01-15 05:11:00,10.9,9.3,30.43,ESE,123,0.0,0.0,93,0.00,,---,0.00,VWS V14.01,2013-01-15 10:11:00,
2013-01-15 05:16:00,10.9,9.3,30.43,ESE,123,0.0,0.0,93,0.00,,---,0.00,VWS V14.01,2013-01-15 10:16:00,
2013-01-15 05:21:00,10.9,9.3,30.43,ESE,123,0.0,0.0,93,0.00,,---,0.00,VWS V14.01,2013-01-15 10:21:00,
2013-01-15 05:26:00,10.9,9.3,30.43,ESE,123,0.0,0.0,93,0.00,,---,0.00,VWS V14.01,2013-01-15 10:26:00,
2013-01-15 05:31:00,10.9,9.3,30.43,ESE,123,0.0,0.0,93,0.00,,---,0.00,VWS V14.01,2013-01-15 10:31:00,
2013-01-15 05:36:00,10.9,9.3,30.43,ESE,123,0.0,0.0,93,0.00,,---,0.00,VWS V14.01,2013-01-15 10:36:00,
2013-01-15 05:42:00,10.9,9.3,30.43,ESE,123,0.0,0.0,93,0.00,,---,0.00,VWS V14.01,2013-01-15 10:42:00,
2013-01-15 05:47:00,10.9,9.3,30.43,ESE,123,0.0,0.0,93,0.00,,---,0.00,VWS V14.01,2013-01-15 10:47:00,
2013-01-15 05:52:00,10.9,9.3,30.43,ESE,123,0.0,0.0,93,0.00,,---,0.00,VWS V14.01,2013-01-15 10:52:00,
2013-01-15 05:57:00,10.9,9.3,30.43,ESE,123,0.0,0.0,93,0.00,,---,0.00,VWS V14.01,2013-01-15 10:57:00,
2013-01-15 06:02:00,10.9,9.3,30.43,ESE,123,0.0,0.0,93,0.00,,---,0.00,VWS V14.01,2013-01-15 11:02:00,
2013-01-15 06:07:00,10.9,9.3,30.43,ESE,123,0.0,0.0,93,0.00,,---,0.00,VWS V14.01,2013-01-15 11:07:00,
2013-01-15 06:12:00,10.9,9.3,30.43,ESE,123,0.0,0.0,93,0.00,,---,0.00,VWS V14.01,2013-01-15 11:12:00,
2013-01-15 06:18:00,10.9,9.3,30.43,ESE,123,0.0,0.0,93,0.00,,---,0.00,VWS V14.01,2013-01-15 11:18:00,
2013-01-15 06:23:00,10.9,9.3,30.43,ESE,123,0.0,0.0,93,0.00,,---,0.00,VWS V14.01,2013-01-15 11:23:00,
2013-01-15 06:28:00,10.9,9.3,30.43,ESE,123,0.0,0.0,93,0.00,,---,0.00,VWS V14.01,2013-01-15 11:28:00,
2013-01-15 06:33:00,10.9,9.3,30.43,ESE,123,0.0,0.0,93,0.00,,---,0.00,VWS V14.01,2013-01-15 11:33:00,
2013-01-15 06:38:00,10.9,9.3,30.43,ESE,123,0.0,0.0,93,0.00,,---,0.00,VWS V14.01,2013-01-15 11:38:00,
2013-01-15 06:43:00,10.9,9.3,30.43,ESE,123,0.0,0.0,93,0.00,,---,0.00,VWS V14.01,2013-01-15 11:43:00,
2013-01-15 06:49:00,10.9,9.3,30.44,ESE,123,0.0,0.0,93,0.00,,---,0.00,VWS V14.01,2013-01-15 11:49:00,
2013-01-15 06:54:00,10.9,9.3,30.44,ESE,123,0.0,0.0,93,0.00,,---,0.00,VWS V14.01,2013-01-15 11:54:00,
2013-01-15 06:59:00,10.9,9.3,30.44,ESE,123,0.0,0.0,93,0.00,,---,0.00,VWS V14.01,2013-01-15 11:59:00,
2013-01-15 07:04:00,10.9,9.3,30.44,ESE,123,0.0,0.0,93,0.00,,---,0.00,VWS V14.01,2013-01-15 12:04:00,
2013-01-15 07:09:00,10.9,9.3,30.44,ESE,123,0.0,0.0,93,0.00,,---,0.00,VWS V14.01,2013-01-15 12:09:00,
2013-01-15 07:14:00,10.9,9.3,30.44,ESE,123,0.0,0.0,93,0.00,,---,0.00,VWS V14.01,2013-01-15 12:14:00,
2013-01-15 07:19:00,10.9,9.3,30.44,ESE,123,0.0,0.0,93,0.00,,---,0.00,VWS V14.01,2013-01-15 12:19:00,
2013-01-15 07:24:00,10.9,9.3,30.44,ESE,123,0.0,0.0,93,0.00,,---,0.00,VWS V14.01,2013-01-15 12:24:00,
2013-01-15 07:30:00,10.9,9.3,30.44,ESE,123,0.0,0.0,93,0.00,,---,0.00,VWS V14.01,2013-01-15 12:30:00,
2013-01-15 07:35:00,10.9,9.3,30.44,ESE,123,0.0,0.0,93,0.00,,---,0.00,VWS V14.01,2013-01-15 12:35:00,
2013-01-15 07:40:00,10.9,9.3,30.45,ESE,123,0.0,0.0,93,0.00,,---,0.00,VWS V14.01,2013-01-15 12:40:00,
2013-01-15 07:45:00,10.9,9.3,30.45,ESE,123,0.0,0.0,93,0.00,,---,0.00,VWS V14.01,2013-01-15 12:45:00,
2013-01-15 07:50:00,10.9,9.3,30.44,ESE,123,0.0,0.0,93,0.00,,---,0.00,VWS V14.01,2013-01-15 12:50:00,
2013-01-15 07:55:00,10.9,9.3,30.45,ESE,123,0.0,0.0,93,0.00,,---,0.00,VWS V14.01,2013-01-15 12:55:00,
2013-01-15 08:00:00,10.9,9.3,30.45,ESE,123,0.0,0.0,93,0.00,,---,0.00,VWS V14.01,2013-01-15 13:00:00,
2013-01-15 08:05:00,10.9,9.3,30.45,ESE,123,0.0,0.0,93,0.00,,---,0.00,VWS V14.01,2013-01-15 13:05:00,
2013-01-15 08:10:00,10.9,9.3,30.45,ESE,123,0.0,0.0,93,0.00,,---,0.00,VWS V14.01,2013-01-15 13:10:00,
2013-01-15 08:15:00,10.9,9.3,30.44,ESE,123,0.0,0.0,93,0.00,,---,0.00,VWS V14.01,2013-01-15 13:15:00,
2013-01-15 08:20:00,10.9,9.3,30.44,ESE,123,0.0,0.0,93,0.00,,---,0.00,VWS V14.01,2013-01-15 13:20:00,
2013-01-15 08:26:00,10.9,9.3,30.43,ESE,123,0.0,0.0,93,0.00,,---,0.00,VWS V14.01,2013-01-15 13:26:00,
2013-01-15 08:31:00,10.9,9.3,30.44,ESE,123,0.0,0.0,93,0.00,,---,0.00,VWS V14.01,2013-01-15 13:31:00,
2013-01-15 08:36:00,10.9,9.3,30.44,ESE,123,0.0,0.0,93,0.00,,---,0.00,VWS V14.01,2013-01-15 13:36:00,
2013-01-15 08:41:00,10.9,9.3,30.45,ESE,123,0.0,0.0,93,0.00,,---,0.00,VWS V14.01,2013-01-15 13:41:00,
2013-01-15 08:46:00,10.9,9.3,30.45,ESE,121,0.0,0.0,93,0.00,,---,0.00,VWS V14.01,2013-01-15 13:46:00,
2013-01-15 08:51:00,12.8,10.9,30.46,ESE,121,0.0,0.0,92,0.00,,---,0.00,VWS V14.01,2013-01-15 13:51:00,
2013-01-15 08:56:00,13.4,11.8,30.46,SSE,163,0.0,1.0,93,0.00,,---,0.00,VWS V14.01,2013-01-15 13:56:00,
2013-01-15 09:01:00,14.1,12.4,30.46,SSW,211,1.0,1.0,93,0.00,,---,0.00,VWS V14.01,2013-01-15 14:01:00,
2013-01-15 09:07:00,14.9,13.2,30.46,South,170,0.0,1.0,93,0.00,,---,0.00,VWS V14.01,2013-01-15 14:07:00,
2013-01-15 09:12:00,16.2,14.8,30.46,SSE,160,0.0,2.0,94,0.00,,---,0.00,VWS V14.01,2013-01-15 14:12:00,
2013-01-15 09:17:00,17.3,15.9,30.47,SSW,207,1.0,2.0,94,0.00,,---,0.00,VWS V14.01,2013-01-15 14:17:00,
2013-01-15 09:22:00,18.1,16.7,30.47,SSE,152,0.0,2.0,94,0.00,,---,0.00,VWS V14.01,2013-01-15 14:22:00,
2013-01-15 09:27:00,18.8,17.1,30.47,SSE,156,0.0,2.0,93,0.00,,---,0.00,VWS V14.01,2013-01-15 14:27:00,
2013-01-15 09:32:00,19.0,17.1,30.47,SSE,157,0.0,2.0,92,0.00,,---,0.00,VWS V14.01,2013-01-15 14:32:00,
2013-01-15 09:37:00,19.3,17.4,30.47,SSE,156,0.0,2.0,92,0.00,,---,0.00,VWS V14.01,2013-01-15 14:37:00,
2013-01-15 09:42:00,19.7,17.8,30.47,SSE,157,0.0,2.0,92,0.00,,---,0.00,VWS V14.01,2013-01-15 14:42:00,
2013-01-15 09:47:00,20.2,18.2,30.46,SSE,163,0.0,2.0,92,0.00,,---,0.00,VWS V14.01,2013-01-15 14:47:00,
2013-01-15 09:53:00,20.9,19.0,30.46,SSE,165,0.0,2.0,92,0.00,,---,0.00,VWS V14.01,2013-01-15 14:53:00,
2013-01-15 09:58:00,21.7,19.7,30.46,SSE,165,0.0,2.0,92,0.00,,---,0.00,VWS V14.01,2013-01-15 14:58:00,
2013-01-15 10:03:00,22.3,20.3,30.46,SSE,153,0.0,0.0,92,0.00,,---,0.00,VWS V14.01,2013-01-15 15:03:00,
2013-01-15 10:08:00,23.2,21.2,30.46,SSE,153,0.0,0.0,92,0.00,,---,0.00,VWS V14.01,2013-01-15 15:08:00,
2013-01-15 10:13:00,23.6,21.1,30.46,SSE,153,0.0,0.0,90,0.00,,---,0.00,VWS V14.01,2013-01-15 15:13:00,
2013-01-15 10:18:00,23.6,21.4,30.45,SSE,153,0.0,0.0,91,0.00,,---,0.00,VWS V14.01,2013-01-15 15:18:00,
2013-01-15 10:23:00,24.6,22.1,30.45,SSE,153,0.0,0.0,90,0.00,,---,0.00,VWS V14.01,2013-01-15 15:23:00,
2013-01-15 10:28:00,24.2,21.2,30.45,SSE,160,0.0,0.0,88,0.00,,---,0.00,VWS V14.01,2013-01-15 15:28:00,
2013-01-15 10:33:00,24.1,20.8,30.45,ENE,58,0.0,2.0,87,0.00,,---,0.00,VWS V14.01,2013-01-15 15:33:00,
2013-01-15 10:39:00,23.9,20.3,30.44,ENE,61,0.0,2.0,86,0.00,,---,0.00,VWS V14.01,2013-01-15 15:39:00,
2013-01-15 10:44:00,23.5,19.7,30.44,NNE,33,3.0,4.0,85,0.00,,---,0.00,VWS V14.01,2013-01-15 15:44:00,
2013-01-15 10:49:00,23.4,19.0,30.45,NE,40,2.0,4.0,83,0.00,,---,0.00,VWS V14.01,2013-01-15 15:49:00,
2013-01-15 10:54:00,23.5,18.5,30.45,NE,35,2.0,4.0,81,0.00,,---,0.00,VWS V14.01,2013-01-15 15:54:00,
2013-01-15 10:59:00,23.7,18.5,30.45,NNE,25,1.0,4.0,80,0.00,,---,0.00,VWS V14.01,2013-01-15 15:59:00,
2013-01-15 11:04:00,23.9,18.0,30.45,NE,49,1.0,2.0,78,0.00,,---,0.00,VWS V14.01,2013-01-15 16:04:00,
2013-01-15 11:09:00,24.2,18.3,30.45,NE,44,2.0,3.0,78,0.00,,---,0.00,VWS V14.01,2013-01-15 16:09:00,
2013-01-15 11:14:00,24.7,18.8,30.46,NNE,32,1.0,3.0,78,0.00,,---,0.00,VWS V14.01,2013-01-15 16:14:00,
2013-01-15 11:20:00,25.0,18.5,30.45,NNE,27,0.0,4.0,76,0.00,,---,0.00,VWS V14.01,2013-01-15 16:20:00,
2013-01-15 11:25:00,25.2,18.7,30.45,SSE,159,2.0,4.0,76,0.00,,---,0.00,VWS V14.01,2013-01-15 16:25:00,
2013-01-15 11:30:00,25.7,18.9,30.45,SW,219,2.0,4.0,75,0.00,,---,0.00,VWS V14.01,2013-01-15 16:30:00,
2013-01-15 11:35:00,25.9,18.1,30.46,SW,225,0.0,4.0,72,0.00,,---,0.00,VWS V14.01,2013-01-15 16:35:00,
2013-01-15 11:40:00,25.9,18.5,30.45,NW,326,1.0,4.0,73,0.00,,---,0.00,VWS V14.01,2013-01-15 16:40:00,
2013-01-15 11:45:00,25.9,18.1,30.44,WSW,239,0.0,4.0,72,0.00,,---,0.00,VWS V14.01,2013-01-15 16:45:00,
2013-01-15 11:50:00,26.3,18.2,30.44,West,271,2.0,4.0,71,0.00,,---,0.00,VWS V14.01,2013-01-15 16:50:00,
2013-01-15 11:55:00,26.5,18.7,30.43,SW,236,3.0,4.0,72,0.00,,---,0.00,VWS V14.01,2013-01-15 16:55:00,
2013-01-15 12:00:00,26.3,17.9,30.44,SW,214,3.0,6.0,70,0.00,,---,0.00,VWS V14.01,2013-01-15 17:00:00,
2013-01-15 12:06:00,26.3,17.5,30.44,ESE,121,1.0,5.0,69,0.00,,---,0.00,VWS V14.01,2013-01-15 17:06:00,
2013-01-15 12:11:00,26.5,18.0,30.44,West,262,5.0,5.0,70,0.00,,---,0.00,VWS V14.01,2013-01-15 17:11:00,
2013-01-15 12:16:00,26.2,17.1,30.43,WSW,257,3.0,6.0,68,0.00,,---,0.00,VWS V14.01,2013-01-15 17:16:00,
2013-01-15 12:21:00,26.2,17.4,30.43,NW,304,2.0,6.0,69,0.00,,---,0.00,VWS V14.01,2013-01-15 17:21:00,
2013-01-15 12:26:00,26.2,17.4,30.43,SW,233,3.0,6.0,69,0.00,,---,0.00,VWS V14.01,2013-01-15 17:26:00,
2013-01-15 12:31:00,26.6,18.1,30.42,South,181,1.0,6.0,70,0.00,,---,0.00,VWS V14.01,2013-01-15 17:31:00,
2013-01-15 12:36:00,27.1,18.6,30.41,SSE,158,2.0,6.0,70,0.00,,---,0.00,VWS V14.01,2013-01-15 17:36:00,
2013-01-15 12:41:00,27.3,18.5,30.41,SE,131,1.0,6.0,69,0.00,,---,0.00,VWS V14.01,2013-01-15 17:41:00,
2013-01-15 12:47:00,27.3,18.1,30.41,East,84,1.0,6.0,68,0.00,,---,0.00,VWS V14.01,2013-01-15 17:47:00,
2013-01-15 12:52:00,27.3,17.5,30.40,SSE,159,5.0,8.0,66,0.00,,---,0.00,VWS V14.01,2013-01-15 17:52:00,
2013-01-15 12:57:00,27.3,18.5,30.39,SW,229,2.0,8.0,69,0.00,,---,0.00,VWS V14.01,2013-01-15 17:57:00,
2013-01-15 13:02:00,27.6,18.8,30.39,SE,142,4.0,4.0,69,0.00,,---,0.00,VWS V14.01,2013-01-15 18:02:00,
2013-01-15 13:07:00,27.5,18.7,30.38,South,186,3.0,5.0,69,0.00,,---,0.00,VWS V14.01,2013-01-15 18:07:00,
2013-01-15 13:12:00,27.4,17.5,30.37,SE,135,1.0,6.0,66,0.00,,---,0.00,VWS V14.01,2013-01-15 18:12:00,
2013-01-15 13:17:00,27.4,17.5,30.37,East,82,3.0,6.0,66,0.00,,---,0.00,VWS V14.01,2013-01-15 18:17:00,
2013-01-15 13:22:00,27.4,17.9,30.36,SW,222,3.0,6.0,67,0.00,,---,0.00,VWS V14.01,2013-01-15 18:22:00,
2013-01-15 13:27:00,27.4,17.5,30.37,WSW,238,3.0,6.0,66,0.00,,---,0.00,VWS V14.01,2013-01-15 18:27:00,
2013-01-15 13:32:00,27.4,17.5,30.39,SW,222,6.0,6.0,66,0.00,,---,0.00,VWS V14.01,2013-01-15 18:32:00,
2013-01-15 13:38:00,27.5,17.6,30.38,SW,236,4.0,8.0,66,0.00,,---,0.00,VWS V14.01,2013-01-15 18:38:00,
2013-01-15 13:43:00,27.5,18.0,30.38,WNW,290,2.0,8.0,67,0.00,,---,0.00,VWS V14.01,2013-01-15 18:43:00,
2013-01-15 13:48:00,27.5,17.6,30.37,ESE,114,2.0,8.0,66,0.00,,---,0.00,VWS V14.01,2013-01-15 18:48:00,
2013-01-15 13:53:00,27.8,18.6,30.38,WSW,240,0.0,8.0,68,0.00,,---,0.00,VWS V14.01,2013-01-15 18:53:00,
2013-01-15 13:58:00,27.9,17.3,30.38,SSW,198,2.0,8.0,64,0.00,,---,0.00,VWS V14.01,2013-01-15 18:58:00,
2013-01-15 14:03:00,27.9,17.7,30.38,WSW,242,3.0,4.0,65,0.00,,---,0.00,VWS V14.01,2013-01-15 19:03:00,
2013-01-15 14:08:00,27.9,17.7,30.38,SW,228,3.0,5.0,65,0.00,,---,0.00,VWS V14.01,2013-01-15 19:08:00,
2013-01-15 14:13:00,28.0,16.7,30.38,WSW,239,4.0,5.0,62,0.00,,---,0.00,VWS V14.01,2013-01-15 19:13:00,
2013-01-15 14:18:00,28.0,17.8,30.38,West,268,2.0,6.0,65,0.00,,---,0.00,VWS V14.01,2013-01-15 19:18:00,
2013-01-15 14:23:00,28.1,17.9,30.37,WSW,242,3.0,6.0,65,0.00,,---,0.00,VWS V14.01,2013-01-15 19:23:00,
2013-01-15 14:29:00,28.2,17.6,30.38,West,263,3.0,6.0,64,0.00,,---,0.00,VWS V14.01,2013-01-15 19:29:00,
2013-01-15 14:34:00,28.4,18.1,30.38,South,169,3.0,6.0,65,0.00,,---,0.00,VWS V14.01,2013-01-15 19:34:00,
2013-01-15 14:39:00,28.7,18.8,30.37,South,191,5.0,6.0,66,0.00,,---,0.00,VWS V14.01,2013-01-15 19:39:00,
2013-01-15 14:44:00,28.9,18.3,30.36,SSE,155,0.0,6.0,64,0.00,,---,0.00,VWS V14.01,2013-01-15 19:44:00,
2013-01-15 14:49:00,29.3,18.6,30.36,SSE,155,0.0,6.0,64,0.00,,---,0.00,VWS V14.01,2013-01-15 19:49:00,
2013-01-15 14:54:00,29.5,17.7,30.35,NW,323,0.0,6.0,61,0.00,,---,0.00,VWS V14.01,2013-01-15 19:54:00,
2013-01-15 14:59:00,29.3,17.9,30.35,North,358,1.0,6.0,62,0.00,,---,0.00,VWS V14.01,2013-01-15 19:59:00,
2013-01-15 15:04:00,29.2,18.2,30.34,North,9,1.0,1.0,63,0.00,,---,0.00,VWS V14.01,2013-01-15 20:04:00,
2013-01-15 15:09:00,29.0,18.0,30.34,NNE,15,0.0,1.0,63,0.00,,---,0.00,VWS V14.01,2013-01-15 20:09:00,
2013-01-15 15:15:00,29.0,17.6,30.34,SSW,205,0.0,1.0,62,0.00,,---,0.00,VWS V14.01,2013-01-15 20:15:00,
2013-01-15 15:20:00,29.3,17.9,30.34,SSW,197,0.0,1.0,62,0.00,,---,0.00,VWS V14.01,2013-01-15 20:20:00,
2013-01-15 15:25:00,29.4,18.0,30.34,WSW,243,2.0,2.0,62,0.00,,---,0.00,VWS V14.01,2013-01-15 20:25:00,
2013-01-15 15:30:00,29.2,17.8,30.34,SW,218,0.0,2.0,62,0.00,,---,0.00,VWS V14.01,2013-01-15 20:30:00,
2013-01-15 15:35:00,28.9,17.5,30.34,SW,219,1.0,3.0,62,0.00,,---,0.00,VWS V14.01,2013-01-15 20:35:00,
2013-01-15 15:40:00,28.7,17.3,30.34,SSW,203,3.0,4.0,62,0.00,,---,0.00,VWS V14.01,2013-01-15 20:40:00,
2013-01-15 15:45:00,28.6,17.6,30.34,SW,226,1.0,4.0,63,0.00,,---,0.00,VWS V14.01,2013-01-15 20:45:00,
2013-01-15 15:50:00,28.4,17.1,30.34,SW,222,1.0,4.0,62,0.00,,---,0.00,VWS V14.01,2013-01-15 20:50:00,
2013-01-15 15:55:00,28.3,16.6,30.34,SE,139,1.0,4.0,61,0.00,,---,0.00,VWS V14.01,2013-01-15 20:55:00,
2013-01-15 16:01:00,28.3,17.3,30.35,SW,214,2.0,4.0,63,0.00,,---,0.00,VWS V14.01,2013-01-15 21:01:00,
2013-01-15 16:06:00,28.3,17.3,30.35,West,259,1.0,4.0,63,0.00,,---,0.00,VWS V14.01,2013-01-15 21:06:00,
2013-01-15 16:11:00,28.2,17.2,30.34,WSW,240,0.0,4.0,63,0.00,,---,0.00,VWS V14.01,2013-01-15 21:11:00,
2013-01-15 16:16:00,28.2,17.6,30.34,SSW,198,0.0,4.0,64,0.00,,---,0.00,VWS V14.01,2013-01-15 21:16:00,
2013-01-15 16:21:00,28.3,17.7,30.33,SE,143,1.0,4.0,64,0.00,,---,0.00,VWS V14.01,2013-01-15 21:21:00,
2013-01-15 16:26:00,28.3,18.1,30.34,WSW,242,2.0,4.0,65,0.00,,---,0.00,VWS V14.01,2013-01-15 21:26:00,
2013-01-15 16:31:00,28.2,18.3,30.33,SSE,150,3.0,4.0,66,0.00,,---,0.00,VWS V14.01,2013-01-15 21:31:00,
2013-01-15 16:36:00,28.1,18.2,30.33,SSE,164,2.0,5.0,66,0.00,,---,0.00,VWS V14.01,2013-01-15 21:36:00,
2013-01-15 16:42:00,28.1,18.9,30.33,SSW,210,4.0,5.0,68,0.00,,---,0.00,VWS V14.01,2013-01-15 21:42:00,
2013-01-15 16:47:00,28.0,18.8,30.33,SSW,205,4.0,5.0,68,0.00,,---,0.00,VWS V14.01,2013-01-15 21:47:00,
2013-01-15 16:52:00,27.9,18.7,30.32,SSW,212,0.0,5.0,68,0.00,,---,0.00,VWS V14.01,2013-01-15 21:52:00,
2013-01-15 16:57:00,27.9,18.7,30.32,SW,233,1.0,5.0,68,0.00,,---,0.00,VWS V14.01,2013-01-15 21:57:00,
2013-01-15 17:02:00,27.8,19.0,30.32,SSE,159,1.0,1.0,69,0.00,,---,0.00,VWS V14.01,2013-01-15 22:02:00,
2013-01-15 17:07:00,27.8,19.0,30.32,SSW,209,3.0,4.0,69,0.00,,---,0.00,VWS V14.01,2013-01-15 22:07:00,
2013-01-15 17:12:00,27.7,19.2,30.33,SW,236,3.0,4.0,70,0.00,,---,0.00,VWS V14.01,2013-01-15 22:12:00,
2013-01-15 17:18:00,27.5,19.0,30.33,South,191,1.0,4.0,70,0.00,,---,0.00,VWS V14.01,2013-01-15 22:18:00,
2013-01-15 17:23:00,27.5,19.4,30.33,South,190,2.0,4.0,71,0.00,,---,0.00,VWS V14.01,2013-01-15 22:23:00,
2013-01-15 17:28:00,27.5,19.0,30.33,SSE,157,3.0,5.0,70,0.00,,---,0.00,VWS V14.01,2013-01-15 22:28:00,
2013-01-15 17:33:00,27.5,19.0,30.33,SSE,153,3.0,5.0,70,0.00,,---,0.00,VWS V14.01,2013-01-15 22:33:00,
2013-01-15 17:38:00,27.5,19.0,30.33,South,187,4.0,5.0,70,0.00,,---,0.00,VWS V14.01,2013-01-15 22:38:00,
2013-01-15 17:43:00,27.5,19.0,30.33,South,190,2.0,5.0,70,0.00,,---,0.00,VWS V14.01,2013-01-15 22:43:00,
2013-01-15 17:48:00,27.4,19.2,30.33,SSW,200,2.0,5.0,71,0.00,,---,0.00,VWS V14.01,2013-01-15 22:48:00,
2013-01-15 17:53:00,27.4,19.6,30.34,SSW,210,1.0,5.0,72,0.00,,---,0.00,VWS V14.01,2013-01-15 22:53:00,
2013-01-15 17:59:00,27.3,19.5,30.33,SSW,195,1.0,5.0,72,0.00,,---,0.00,VWS V14.01,2013-01-15 22:59:00,
2013-01-15 18:04:00,27.2,19.4,30.33,SSW,211,1.0,3.0,72,0.00,,---,0.00,VWS V14.01,2013-01-15 23:04:00,
2013-01-15 18:09:00,27.2,19.4,30.33,SSE,167,2.0,3.0,72,0.00,,---,0.00,VWS V14.01,2013-01-15 23:09:00,
2013-01-15 18:14:00,27.2,19.7,30.33,South,191,4.0,6.0,73,0.00,,---,0.00,VWS V14.01,2013-01-15 23:14:00,
2013-01-15 18:19:00,27.1,19.6,30.33,SSW,197,2.0,6.0,73,0.00,,---,0.00,VWS V14.01,2013-01-15 23:19:00,
2013-01-15 18:24:00,27.1,19.9,30.33,SSW,204,2.0,6.0,74,0.00,,---,0.00,VWS V14.01,2013-01-15 23:24:00,
2013-01-15 18:29:00,27.0,19.8,30.33,SW,229,2.0,6.0,74,0.00,,---,0.00,VWS V14.01,2013-01-15 23:29:00,
2013-01-15 18:34:00,26.9,20.0,30.32,SW,224,2.0,6.0,75,0.00,,---,0.00,VWS V14.01,2013-01-15 23:34:00,
2013-01-15 18:39:00,26.7,19.9,30.33,SSW,201,4.0,6.0,75,0.00,,---,0.00,VWS V14.01,2013-01-15 23:39:00,
2013-01-15 18:45:00,26.7,20.2,30.32,SSW,209,3.0,6.0,76,0.00,,---,0.00,VWS V14.01,2013-01-15 23:45:00,
2013-01-15 18:50:00,26.6,20.1,30.32,WSW,238,3.0,6.0,76,0.00,,---,0.00,VWS V14.01,2013-01-15 23:50:00,
2013-01-15 18:55:00,26.5,20.0,30.32,SSW,200,4.0,6.0,76,0.00,,---,0.00,VWS V14.01,2013-01-15 23:55:00,
2013-01-15 19:00:00,26.4,20.2,30.32,SW,219,3.0,6.0,77,0.00,,---,0.00,VWS V14.01,2013-01-16 00:00:00,
2013-01-15 19:05:00,26.3,20.1,30.32,WSW,255,1.0,5.0,77,0.00,,---,0.00,VWS V14.01,2013-01-16 00:05:00,
2013-01-15 19:10:00,26.2,20.0,30.32,SW,218,4.0,5.0,77,0.00,,---,0.00,VWS V14.01,2013-01-16 00:10:00,
2013-01-15 19:15:00,26.1,19.9,30.32,SW,236,3.0,5.0,77,0.00,,---,0.00,VWS V14.01,2013-01-16 00:15:00,
2013-01-15 19:20:00,26.1,19.9,30.31,SW,222,1.0,5.0,77,0.00,,---,0.00,VWS V14.01,2013-01-16 00:20:00,
2013-01-15 19:26:00,25.9,19.7,30.32,WSW,253,2.0,5.0,77,0.00,,---,0.00,VWS V14.01,2013-01-16 00:26:00,
2013-01-15 19:31:00,25.8,19.6,30.32,West,269,1.0,5.0,77,0.00,,---,0.00,VWS V14.01,2013-01-16 00:31:00,
2013-01-15 19:36:00,25.7,19.5,30.32,WSW,252,1.0,5.0,77,0.00,,---,0.00,VWS V14.01,2013-01-16 00:36:00,
2013-01-15 19:41:00,25.6,19.7,30.31,WSW,246,0.0,5.0,78,0.00,,---,0.00,VWS V14.01,2013-01-16 00:41:00,
2013-01-15 19:46:00,25.5,19.6,30.30,WSW,252,1.0,5.0,78,0.00,,---,0.00,VWS V14.01,2013-01-16 00:46:00,
2013-01-15 19:51:00,25.4,19.5,30.30,WSW,242,1.0,5.0,78,0.00,,---,0.00,VWS V14.01,2013-01-16 00:51:00,
2013-01-15 19:56:00,25.3,19.4,30.30,SSW,203,2.0,5.0,78,0.00,,---,0.00,VWS V14.01,2013-01-16 00:56:00,
2013-01-15 20:02:00,25.2,19.6,30.30,SSW,193,2.0,2.0,79,0.00,,---,0.00,VWS V14.01,2013-01-16 01:02:00,
2013-01-15 20:07:00,25.1,19.5,30.29,SSW,203,0.0,2.0,79,0.00,,---,0.00,VWS V14.01,2013-01-16 01:07:00,
2013-01-15 20:12:00,25.0,19.4,30.30,SSW,197,0.0,2.0,79,0.00,,---,0.00,VWS V14.01,2013-01-16 01:12:00,
2013-01-15 20:17:00,24.8,19.2,30.29,SSW,197,0.0,2.0,79,0.00,,---,0.00,VWS V14.01,2013-01-16 01:17:00,
2013-01-15 20:22:00,24.4,18.8,30.28,SSW,197,0.0,2.0,79,0.00,,---,0.00,VWS V14.01,2013-01-16 01:22:00,
2013-01-15 20:27:00,24.1,18.8,30.28,SSW,197,0.0,2.0,80,0.00,,---,0.00,VWS V14.01,2013-01-16 01:27:00,
2013-01-15 20:32:00,23.9,18.9,30.28,SSW,197,0.0,2.0,81,0.00,,---,0.00,VWS V14.01,2013-01-16 01:32:00,
2013-01-15 20:37:00,23.8,18.8,30.28,SE,143,0.0,2.0,81,0.00,,---,0.00,VWS V14.01,2013-01-16 01:37:00,
2013-01-15 20:43:00,23.8,19.1,30.27,SE,127,0.0,2.0,82,0.00,,---,0.00,VWS V14.01,2013-01-16 01:43:00,
2013-01-15 20:48:00,23.7,19.0,30.27,SE,127,0.0,2.0,82,0.00,,---,0.00,VWS V14.01,2013-01-16 01:48:00,
2013-01-15 20:53:00,23.5,19.1,30.27,SE,127,0.0,2.0,83,0.00,,---,0.00,VWS V14.01,2013-01-16 01:53:00,
2013-01-15 20:58:00,23.3,19.2,30.26,SE,127,0.0,2.0,84,0.00,,---,0.00,VWS V14.01,2013-01-16 01:58:00,
2013-01-15 21:03:00,23.4,19.6,30.26,SE,127,0.0,0.0,85,0.00,,---,0.00,VWS V14.01,2013-01-16 02:03:00,
2013-01-15 21:08:00,23.3,19.7,30.26,SE,127,0.0,0.0,86,0.00,,---,0.00,VWS V14.01,2013-01-16 02:08:00,
2013-01-15 21:13:00,23.2,19.4,30.25,SE,127,0.0,1.0,85,0.00,,---,0.00,VWS V14.01,2013-01-16 02:13:00,
2013-01-15 21:18:00,23.2,19.4,30.25,SE,127,1.0,2.0,85,0.00,,---,0.00,VWS V14.01,2013-01-16 02:18:00,
2013-01-15 21:24:00,23.3,19.5,30.25,SE,129,0.0,2.0,85,0.00,,---,0.00,VWS V14.01,2013-01-16 02:24:00,
2013-01-15 21:29:00,23.3,19.2,30.25,SE,128,0.0,2.0,84,0.00,,---,0.00,VWS V14.01,2013-01-16 02:29:00,
2013-01-15 21:34:00,23.4,19.6,30.25,SE,128,1.0,2.0,85,0.00,,---,0.00,VWS V14.01,2013-01-16 02:34:00,
2013-01-15 21:39:00,23.4,19.3,30.25,SE,139,2.0,2.0,84,0.00,,---,0.00,VWS V14.01,2013-01-16 02:39:00,
2013-01-15 21:44:00,23.6,19.5,30.24,SSE,151,2.0,3.0,84,0.00,,---,0.00,VWS V14.01,2013-01-16 02:44:00,
2013-01-15 21:49:00,23.7,19.6,30.23,SE,143,1.0,3.0,84,0.00,,---,0.00,VWS V14.01,2013-01-16 02:49:00,
2013-01-15 21:54:00,23.8,19.7,30.24,SE,143,2.0,3.0,84,0.00,,---,0.00,VWS V14.01,2013-01-16 02:54:00,
2013-01-15 21:59:00,23.8,19.4,30.24,SE,134,0.0,3.0,83,0.00,,---,0.00,VWS V14.01,2013-01-16 02:59:00,
2013-01-15 22:05:00,23.7,19.3,30.24,SE,129,1.0,1.0,83,0.00,,---,0.00,VWS V14.01,2013-01-16 03:05:00,
2013-01-15 22:10:00,23.6,19.2,30.23,ESE,120,0.0,2.0,83,0.00,,---,0.00,VWS V14.01,2013-01-16 03:10:00,
2013-01-15 22:15:00,23.6,19.2,30.23,SE,127,0.0,2.0,83,0.00,,---,0.00,VWS V14.01,2013-01-16 03:15:00,
2013-01-15 22:20:00,23.6,19.5,30.24,SSE,159,2.0,2.0,84,0.00,,---,0.00,VWS V14.01,2013-01-16 03:20:00,
2013-01-15 22:25:00,23.5,19.4,30.23,SSE,156,0.0,2.0,84,0.00,,---,0.00,VWS V14.01,2013-01-16 03:25:00,
2013-01-15 22:30:00,23.4,19.3,30.22,SSE,157,0.0,2.0,84,0.00,,---,0.00,VWS V14.01,2013-01-16 03:30:00,
2013-01-15 22:35:00,23.4,19.6,30.23,SE,138,1.0,2.0,85,0.00,,---,0.00,VWS V14.01,2013-01-16 03:35:00,
2013-01-15 22:40:00,23.2,19.4,30.22,SE,138,0.0,2.0,85,0.00,,---,0.00,VWS V14.01,2013-01-16 03:40:00,
2013-01-15 22:46:00,23.1,19.3,30.22,SE,137,0.0,2.0,85,0.00,,---,0.00,VWS V14.01,2013-01-16 03:46:00,
2013-01-15 22:51:00,23.0,19.5,30.22,SE,127,0.0,2.0,86,0.00,,---,0.00,VWS V14.01,2013-01-16 03:51:00,
2013-01-15 22:56:00,22.9,19.4,30.22,SE,127,0.0,2.0,86,0.00,,---,0.00,VWS V14.01,2013-01-16 03:56:00,
2013-01-15 23:01:00,22.8,19.2,30.21,ESE,120,1.0,2.0,86,0.00,,---,0.00,VWS V14.01,2013-01-16 04:01:00,
2013-01-15 23:06:00,22.9,19.6,30.21,SE,127,0.0,2.0,87,0.00,,---,0.00,VWS V14.01,2013-01-16 04:06:00,
2013-01-15 23:11:00,22.8,19.5,30.21,SE,127,0.0,2.0,87,0.00,,---,0.00,VWS V14.01,2013-01-16 04:11:00,
2013-01-15 23:16:00,22.5,19.2,30.21,SE,125,0.0,2.0,87,0.00,,---,0.00,VWS V14.01,2013-01-16 04:16:00,
2013-01-15 23:21:00,22.3,19.0,30.21,SE,125,0.0,2.0,87,0.00,,---,0.00,VWS V14.01,2013-01-16 04:21:00,
2013-01-15 23:27:00,22.1,19.1,30.20,SE,125,0.0,2.0,88,0.00,,---,0.00,VWS V14.01,2013-01-16 04:27:00,
2013-01-15 23:32:00,21.9,18.9,30.20,SE,125,0.0,2.0,88,0.00,,---,0.00,VWS V14.01,2013-01-16 04:32:00,
2013-01-15 23:37:00,21.7,18.7,30.20,SE,125,0.0,2.0,88,0.00,,---,0.00,VWS V14.01,2013-01-16 04:37:00,
2013-01-15 23:42:00,21.5,18.8,30.20,SE,125,0.0,2.0,89,0.00,,---,0.00,VWS V14.01,2013-01-16 04:42:00,
2013-01-15 23:47:00,21.4,18.7,30.19,SE,125,0.0,2.0,89,0.00,,---,0.00,VWS V14.01,2013-01-16 04:47:00,
2013-01-15 23:52:00,21.2,18.7,30.18,SE,127,0.0,2.0,90,0.00,,---,0.00,VWS V14.01,2013-01-16 04:52:00,
2013-01-15 23:57:00,21.0,18.5,30.19,SE,125,0.0,2.0,90,0.00,,---,0.00,VWS V14.01,2013-01-16 04:57:00,